This is the latest recevied weather packets stored in our database for station/object IW1RCO-13. If no packets are shown the sender has not sent any weather packets the latest 10 day(s).
| Time | Temp. | Humidity | Pressure | Rain* | Wind** | Luminosity | Snow |
|---|---|---|---|---|---|---|---|
| 1788056370 | 18.33° C | 62% | 1015.6 hPa | - | - | - | - |
| 1788056066 | 18.33° C | 63% | 1015.9 hPa | - | - | - | - |
| 1788055770 | 18.33° C | 64% | 1016 hPa | - | - | - | - |
| 1788055467 | 18.33° C | 63% | 1016.2 hPa | - | - | - | - |
| 1788055170 | 18.33° C | 63% | 1015.6 hPa | - | - | - | - |
| 1788054866 | 18.33° C | 63% | 1015.8 hPa | - | - | - | - |
| 1788054569 | 18.33° C | 63% | 1015.3 hPa | - | - | - | - |
| 1788054266 | 18.33° C | 64% | 1015.7 hPa | - | - | - | - |
| 1788053969 | 18.33° C | 62% | 1016.2 hPa | - | - | - | - |
| 1788053665 | 18.33° C | 63% | 1015.7 hPa | - | - | - | - |
| 1788053369 | 18.33° C | 63% | 1016.5 hPa | - | - | - | - |
| 1788053065 | 18.33° C | 62% | 1016.3 hPa | - | - | - | - |
| 1788052768 | 18.33° C | 63% | 1016 hPa | - | - | - | - |
| 1788052472 | 18.33° C | 63% | 1016.8 hPa | - | - | - | - |
| 1788052168 | 17.78° C | 65% | 1015.9 hPa | - | - | - | - |
| 1788051568 | 17.78° C | 68% | 1015.8 hPa | - | - | - | - |
| 1788051271 | 17.78° C | 68% | 1016.1 hPa | - | - | - | - |
| 1788050968 | 16.67° C | 70% | 1016.4 hPa | - | - | - | - |
| 1788050671 | 16.67° C | 73% | 1016.2 hPa | - | - | - | - |
| 1788050367 | 16.67° C | 74% | 1016.2 hPa | - | - | - | - |
| 1788050071 | 16.67° C | 73% | 1016.2 hPa | - | - | - | - |
| 1788049767 | 16.67° C | 73% | 1015.9 hPa | - | - | - | - |
| 1788049471 | 16.67° C | 73% | 1016.2 hPa | - | - | - | - |
| 1788049167 | 17.22° C | 73% | 1016.2 hPa | - | - | - | - |
| 1788048870 | 17.22° C | 72% | 1015.7 hPa | - | - | - | - |
* Rain since midnight (hover to see other rain measurements)
** Current wind speed in m/s (hover to see current wind gust speed)